Location: Breitenfeld
(46.8500°N, 15.6333°E)
Time: 12:05:08
(UTC+00:00)

Transit 4B - Pass Details

Date: 02 June 2022
Orbit: 948 x 1097 km, 32.4° (Epoch: 01 July)

Event Time Altitude Azimuth Distance (km) Brightness Sun altitude
Exits shadow 23:57:46 19° 149° (SSE) 2,172 9.9 -19.5°
Drops below altitude 10° 00:00:45 10° 125° (SE) 2,761 10.7 -19.3°
Sets 00:03:58 0° 110° (ESE) 3,685 11.5 -19.2°
